GW2492 Weather Reports


Display with metric or nautical units.
time (UTC)temp
F
wind
direction
speed
MPH
gust
MPH
rain 1hr
in
rain 24hr
in
rain mn
in
humidity
%
barometer
mb
20260506073042 64 42 6.0 12.0 0.00 0.00 0.00 76 1010.2
20260506071548 64 46 4.0 10.0 0.00 0.00 0.00 76 1010.4
20260506061548 67 94 5.0 10.0 0.00 0.00 0.00 71 1009.4
20260506050103 74 51 8.0 17.0 0.00 0.00 0.00 55 1009.3
20260506044544 77 49 1.0 3.0 0.00 0.00 0.00 39 1009.0
20260506043046 77 71 1.0 4.0 0.00 0.00 0.00 39 1008.7
20260506041558 77 57 3.0 7.0 0.00 0.00 0.00 39 1008.8
20260506040045 78 76 1.0 4.0 0.00 0.00 0.00 39 1008.8
20260506034550 78 65 2.0 4.0 0.00 0.00 0.00 37 1008.7
20260506033041 78 355 3.0 5.0 0.00 0.00 0.00 37 1008.8
20260506031545 79 13 4.0 7.0 0.00 0.00 0.00 35 1008.4
20260506030044 80 13 3.0 5.0 0.00 0.00 0.00 34 1008.3
20260506024556 80 5 1.0 3.0 0.00 0.00 0.00 34 1008.1
20260506023113 80 0 0.0 0.0 0.00 0.00 0.00 33 1008.1
20260506021548 80 0 0.0 3.0 0.00 0.00 0.00 33 1007.9
20260506020052 80 300 2.0 6.0 0.00 0.00 0.00 34 1007.6
20260506014545 81 296 3.0 8.0 0.00 0.00 0.00 34 1007.6
20260506013052 83 302 5.0 10.0 0.00 0.00 0.00 34 1007.3
20260506011546 85 267 5.0 10.0 0.00 0.00 0.00 34 1007.0
20260506010049 85 255 4.0 7.0 0.00 0.00 0.00 34 1007.0
20260506004544 86 258 5.0 8.0 0.00 0.00 0.00 32 1006.7
20260506003044 87 254 7.0 10.0 0.00 0.00 0.00 28 1006.6
20260506001552 88 263 7.0 10.0 0.00 0.00 0.00 28 1006.5
20260506000047 88 252 7.0 11.0 0.00 0.00 0.00 30 1006.4
20260505234541 89 232 8.0 11.0 0.00 0.00 0.00 27 1006.3
20260505233048 89 265 10.0 15.0 0.00 0.00 0.00 25 1006.4
20260505231547 90 254 12.0 17.0 0.00 0.00 0.00 25 1006.5
20260505230110 90 264 9.0 14.0 0.00 0.00 0.00 25 1006.5
20260505224545 90 257 10.0 15.0 0.00 0.00 0.00 25 1006.7
20260505223048 90 259 10.0 19.0 0.00 0.00 0.00 26 1006.6
20260505221554 90 259 11.0 15.0 0.00 0.00 0.00 26 1006.5
20260505220053 91 266 10.0 16.0 0.00 0.00 0.00 26 1006.5
20260505214542 91 304 4.0 13.0 0.00 0.00 0.00 28 1006.6
20260505213047 91 263 8.0 17.0 0.00 0.00 0.00 28 1006.6
20260505211557 91 253 11.0 18.0 0.00 0.00 0.00 26 1006.7
20260505210044 92 282 9.0 17.0 0.00 0.00 0.00 30 1007.0
20260505204541 91 271 7.0 15.0 0.00 0.00 0.00 32 1007.1
20260505203042 90 254 9.0 19.0 0.00 0.00 0.00 29 1007.2
20260505201549 90 254 5.0 18.0 0.00 0.00 0.00 34 1007.2
20260505200048 90 273 6.0 15.0 0.00 0.00 0.00 35 1007.4
20260505194547 89 261 11.0 16.0 0.00 0.00 0.00 33 1007.5
20260505193057 89 279 10.0 19.0 0.00 0.00 0.00 33 1007.5
20260505191544 88 276 7.0 17.0 0.00 0.00 0.00 39 1007.7
20260505190043 88 312 11.0 18.0 0.00 0.00 0.00 36 1007.9
20260505184548 87 286 10.0 16.0 0.00 0.00 0.00 41 1008.0
20260505183047 87 265 6.0 17.0 0.00 0.00 0.00 48 1008.1
20260505181554 85 281 14.0 21.0 0.00 0.00 0.00 49 1008.2
20260505180041 84 254 15.0 23.0 0.00 0.00 0.00 51 1008.3
20260505174548 84 270 9.0 21.0 0.00 0.00 0.00 52 1008.4
20260505173044 83 257 10.0 21.0 0.00 0.00 0.00 54 1008.6
20260505171543 82 277 12.0 20.0 0.00 0.00 0.00 57 1008.6
20260505170042 81 233 14.0 17.0 0.00 0.00 0.00 62 1008.7
20260505164550 79 232 13.0 19.0 0.00 0.00 0.00 66 1008.7
20260505163045 78 229 14.0 21.0 0.00 0.00 0.00 68 1008.6
20260505161546 77 227 15.0 21.0 0.00 0.00 0.00 72 1008.5
20260505153045 75 223 14.0 20.0 0.00 0.00 0.00 77 1008.5
20260505151545 74 228 15.0 22.0 0.00 0.00 0.00 77 1008.3
20260505124549 68 204 20.0 26.0 0.00 0.00 0.00 87 1007.4
20260505123042 67 221 18.0 24.0 0.00 0.00 0.00 87 1007.3
20260505121543 67 215 17.0 24.0 0.00 0.00 0.00 87 1007.1
20260505120046 67 223 15.0 23.0 0.00 0.00 0.00 86 1007.1
20260505114549 67 221 16.0 24.0 0.00 0.00 0.00 86 1006.9
20260505113042 67 221 17.0 22.0 0.00 0.00 0.00 85 1006.7
20260505111546 68 234 17.0 24.0 0.00 0.00 0.00 85 1006.7
20260505101550 69 229 16.0 23.0 0.00 0.00 0.00 82 1006.4
20260505100046 69 218 17.0 25.0 0.00 0.00 0.00 81 1006.3
20260505094601 69 219 18.0 25.0 0.00 0.00 0.00 81 1006.4
20260505093043 69 212 16.0 24.0 0.00 0.00 0.00 81 1006.2
20260505091545 69 217 16.0 24.0 0.00 0.00 0.00 81 1006.2
20260505090047 69 224 19.0 25.0 0.00 0.00 0.00 80 1006.6
20260505084553 69 205 17.0 24.0 0.00 0.00 0.00 80 1006.6
20260505083054 69 218 16.0 25.0 0.00 0.00 0.00 80 1006.5
20260505081555 69 221 17.0 27.0 0.00 0.00 0.00 80 1006.8